星链-34247 (STARLINK-34247)

导读

STARLINK-34247是由美国发射的Starlink星链系列卫星,于2025年8月4日发射升空,属于SpaceX公司打造的星链互联网星座的一员。星链计划旨在构建覆盖全球的低轨卫星互联网星座,该卫星入轨后将为全球偏远地区、海上和航空场景提供高速低延迟的宽带接入服务,进一步完善星链星座的全球服务覆盖能力。

Basic Information
目录编号:
65083
目录名称:
STARLINK-34247
国际标识:
2025-167F
轨道中心:
EARTH
卫星名称:
星链-34247
卫星全名:
星链-34247 (STARLINK-34247)
卫星状态:
在轨 (已飞行396 天)
发射日期:
2025-08-04 UTC
国别 :
美国 (US)
星等 :
--
Orbit Information
数据来源 国际轨道数据
星历时间: 2026-09-04T09:18:22+0800
10小时前
查看轨道信息
半长轴: 6840.831km
偏心率: 0.0002027
轨道倾角: 53.158°
近地点辐角 66.325°
升交点赤经 274.299°
平近点角 293.797°
近地点: 461.307km
远地点: 464.081km
周期: 93.848分钟
每日圈数: 15.344032
Detailed Information
固有亮度:
5
最大亮度:
2.5
卫星平台:
Starlink V1.0
覆盖范围:
全球
运营商:
太空探索技术公司
运营商所在国:
美国
制造商(研发单位):
太空探索技术公司
制造商所在国:
美国
使用方式:
暂无
Satellite Introduction
Starlink 计划是 SpaceX 推出的全球卫星互联网项目,通过发射低轨道卫星,为全球尤其是偏远地区提供高速、低延迟的互联网服务。自 2019 年起,Starlink 已部署数千颗卫星,旨在缩小全球数字鸿沟,推动互联网普及。该项目还为军事、航空等行业提供通信支持,带来广泛经济效益。
2D Orbit Map
3D Orbit Map
Orbit Altitude Analysis Chart
Orbit Inclination Analysis Chart
Orbit Comprehensive Analysis Chart
View Comprehensive Chart
Conjunction Data List
Event ID Objects TCA Miss Dist (km) Collision Risk Probability Collision Risk Index (CRI) Action
CDM_260904-064905-816106-508321
2026-09-04T
06:49:57+0000
1.115 km
极远距离
1.612102E-5 中风险 0.59
CDM_260903-142505-816106-508321
2026-09-03T
14:25:12+0000
1.294 km
极远距离
9.611347E-6 低风险 0.55
CDM_260903-125105-816106-508321
2026-09-03T
12:51:24+0000
1.471 km
极远距离
6.243905E-6 低风险 0.51
CDM_260904-082305-816106-508321
2026-09-04T
08:23:44+0000
1.626 km
极远距离
4.528012E-6 低风险 0.48